| time (UTC) | temp F | wind direction | speed MPH | gust MPH | rain 1hr in | rain 24hr in | rain mn in | humidity % | barometer mb |
| 20260505021731 | 62 | 320 | 2.0 | 6.0 | 0.00 | 0.00 | 0.00 | 52 | 984.5 |
| 20260505021230 | 62 | 181 | 1.0 | 5.0 | 0.00 | 0.00 | 0.00 | 53 | 984.6 |
| 20260505020731 | 62 | 306 | 1.0 | 4.0 | 0.00 | 0.00 | 0.00 | 54 | 984.7 |
| 20260505020231 | 61 | 220 | 1.0 | 6.0 | 0.00 | 0.00 | 0.00 | 55 | 984.7 |
| 20260505020013 | 62 | 250 | 1.0 | 6.0 | 0.00 | 0.00 | 0.00 | 54 | 984.8 |
| 20260505015232 | 62 | 0 | 1.0 | 4.0 | 0.00 | 0.00 | 0.00 | 54 | 984.7 |
| 20260505015017 | 62 | 107 | 1.0 | 3.0 | 0.00 | 0.00 | 0.00 | 52 | 984.7 |
| 20260505014230 | 63 | 4 | 1.0 | 4.0 | 0.00 | 0.00 | 0.00 | 52 | 984.7 |
| 20260505013731 | 63 | 209 | 2.0 | 4.0 | 0.00 | 0.00 | 0.00 | 50 | 984.7 |
| 20260505013232 | 64 | 20 | 1.0 | 3.0 | 0.00 | 0.00 | 0.00 | 50 | 984.6 |
| 20260505012731 | 64 | 48 | 2.0 | 5.0 | 0.00 | 0.00 | 0.00 | 49 | 984.4 |
| 20260505012232 | 64 | 148 | 2.0 | 5.0 | 0.00 | 0.00 | 0.00 | 48 | 984.4 |
| 20260505011732 | 64 | 148 | 2.0 | 5.0 | 0.00 | 0.00 | 0.00 | 49 | 984.3 |
| 20260505011230 | 64 | 139 | 2.0 | 5.0 | 0.00 | 0.00 | 0.00 | 47 | 984.3 |
| 20260505010731 | 64 | 306 | 2.0 | 5.0 | 0.00 | 0.00 | 0.00 | 47 | 984.2 |
| 20260505010519 | 64 | 215 | 2.0 | 6.0 | 0.00 | 0.00 | 0.00 | 47 | 984.2 |
| 20260505010056 | 65 | 159 | 2.0 | 7.0 | 0.00 | 0.00 | 0.00 | 46 | 984.1 |
| 20260505005754 | 64 | 278 | 2.0 | 7.0 | 0.00 | 0.00 | 0.00 | 46 | 984.2 |
| 20260505004728 | 64 | 210 | 2.0 | 7.0 | 0.00 | 0.00 | 0.00 | 47 | 984.1 |
| 20260505004227 | 65 | 147 | 1.0 | 4.0 | 0.00 | 0.00 | 0.00 | 46 | 984.1 |
| 20260505003724 | 65 | 205 | 2.0 | 5.0 | 0.00 | 0.00 | 0.00 | 46 | 984.1 |
| 20260505003224 | 65 | 214 | 2.0 | 5.0 | 0.00 | 0.00 | 0.00 | 46 | 984.0 |
| 20260505002723 | 65 | 160 | 2.0 | 6.0 | 0.00 | 0.00 | 0.00 | 45 | 984.0 |
| 20260505002224 | 65 | 310 | 2.0 | 6.0 | 0.00 | 0.00 | 0.00 | 45 | 983.9 |
| 20260505001724 | 65 | 208 | 3.0 | 6.0 | 0.00 | 0.00 | 0.00 | 45 | 983.9 |
| 20260505001224 | 66 | 226 | 3.0 | 7.0 | 0.00 | 0.00 | 0.00 | 45 | 983.9 |
| 20260505000724 | 66 | 267 | 3.0 | 7.0 | 0.00 | 0.00 | 0.00 | 45 | 983.9 |
| 20260505000226 | 66 | 190 | 2.0 | 6.0 | 0.00 | 0.00 | 0.00 | 45 | 983.9 |
| 20260504235725 | 66 | 0 | 2.0 | 6.0 | 0.00 | 0.00 | 0.00 | 45 | 983.9 |
| 20260504235222 | 66 | 200 | 3.0 | 6.0 | 0.00 | 0.00 | 0.00 | 44 | 983.8 |
| 20260504234722 | 66 | 162 | 3.0 | 7.0 | 0.00 | 0.00 | 0.00 | 44 | 983.8 |
| 20260504234511 | 66 | 134 | 3.0 | 7.0 | 0.00 | 0.00 | 0.00 | 44 | 983.8 |
| 20260504234010 | 67 | 193 | 2.0 | 7.0 | 0.00 | 0.00 | 0.00 | 44 | 983.7 |
| 20260504233221 | 67 | 280 | 3.0 | 11.0 | 0.00 | 0.00 | 0.00 | 44 | 983.7 |
| 20260504233010 | 67 | 218 | 4.0 | 11.0 | 0.00 | 0.00 | 0.00 | 44 | 983.6 |
| 20260504232222 | 67 | 180 | 4.0 | 11.0 | 0.00 | 0.00 | 0.00 | 44 | 983.7 |
| 20260504231722 | 67 | 222 | 4.0 | 11.0 | 0.00 | 0.00 | 0.00 | 43 | 983.7 |
| 20260504231223 | 67 | 164 | 4.0 | 10.0 | 0.00 | 0.00 | 0.00 | 43 | 983.7 |
| 20260504231012 | 68 | 188 | 4.0 | 13.0 | 0.00 | 0.00 | 0.00 | 44 | 983.7 |
| 20260504230222 | 68 | 318 | 4.0 | 13.0 | 0.00 | 0.06 | 0.00 | 42 | 983.7 |
| 20260504225719 | 68 | 222 | 4.0 | 13.0 | 0.00 | 0.06 | 0.00 | 42 | 983.7 |
| 20260504225219 | 68 | 263 | 4.0 | 13.0 | 0.00 | 0.06 | 0.00 | 42 | 983.7 |
| 20260504224720 | 68 | 183 | 4.0 | 13.0 | 0.00 | 0.06 | 0.00 | 42 | 983.6 |
| 20260504224220 | 68 | 197 | 4.0 | 9.0 | 0.00 | 0.06 | 0.00 | 43 | 983.7 |
| 20260504223719 | 69 | 182 | 5.0 | 9.0 | 0.00 | 0.06 | 0.00 | 40 | 983.7 |
| 20260504223220 | 69 | 307 | 5.0 | 14.0 | 0.00 | 0.06 | 0.00 | 40 | 983.7 |
| 20260504223009 | 69 | 289 | 5.0 | 14.0 | 0.00 | 0.06 | 0.00 | 42 | 983.7 |
| 20260504222219 | 69 | 159 | 5.0 | 12.0 | 0.00 | 0.06 | 0.00 | 41 | 983.6 |
| 20260504221720 | 69 | 220 | 5.0 | 12.0 | 0.00 | 0.06 | 0.00 | 41 | 983.7 |
| 20260504221220 | 69 | 149 | 5.0 | 12.0 | 0.00 | 0.06 | 0.00 | 40 | 983.8 |
| 20260504220720 | 69 | 202 | 5.0 | 12.0 | 0.00 | 0.07 | 0.00 | 39 | 983.8 |
| 20260504220220 | 69 | 173 | 4.0 | 12.0 | 0.00 | 0.07 | 0.00 | 41 | 983.8 |
| 20260504220009 | 69 | 294 | 5.0 | 12.0 | 0.00 | 0.07 | 0.00 | 39 | 983.8 |
| 20260504215218 | 70 | 208 | 4.0 | 9.0 | 0.00 | 0.07 | 0.00 | 39 | 983.9 |
| 20260504215007 | 69 | 241 | 5.0 | 15.0 | 0.00 | 0.07 | 0.00 | 39 | 983.8 |
| 20260504214217 | 69 | 220 | 6.0 | 15.0 | 0.00 | 0.07 | 0.00 | 41 | 983.8 |
| 20260504214007 | 70 | 175 | 4.0 | 9.0 | 0.00 | 0.07 | 0.00 | 39 | 983.8 |
| 20260504213218 | 70 | 201 | 4.0 | 9.0 | 0.00 | 0.07 | 0.00 | 41 | 983.8 |
| 20260504212719 | 69 | 230 | 4.0 | 9.0 | 0.00 | 0.07 | 0.00 | 41 | 983.8 |
| 20260504212218 | 69 | 200 | 4.0 | 9.0 | 0.00 | 0.07 | 0.00 | 40 | 983.8 |
| 20260504211718 | 69 | 260 | 4.0 | 11.0 | 0.00 | 0.07 | 0.00 | 40 | 983.8 |
| 20260504211218 | 69 | 169 | 4.0 | 11.0 | 0.00 | 0.07 | 0.00 | 41 | 983.9 |
| 20260504210719 | 70 | 182 | 4.0 | 11.0 | 0.00 | 0.07 | 0.00 | 42 | 983.8 |
| 20260504210216 | 69 | 226 | 4.0 | 11.0 | 0.00 | 0.07 | 0.00 | 43 | 983.8 |
| 20260504205712 | 70 | 176 | 4.0 | 9.0 | 0.00 | 0.07 | 0.00 | 40 | 983.8 |
| 20260504205213 | 69 | 229 | 4.0 | 9.0 | 0.00 | 0.07 | 0.00 | 40 | 983.8 |
| 20260504204712 | 70 | 213 | 4.0 | 10.0 | 0.00 | 0.07 | 0.00 | 39 | 983.8 |
| 20260504204212 | 70 | 252 | 5.0 | 10.0 | 0.00 | 0.07 | 0.00 | 41 | 983.8 |
| 20260504203713 | 70 | 292 | 3.0 | 7.0 | 0.00 | 0.07 | 0.00 | 38 | 983.8 |
| 20260504203213 | 70 | 194 | 3.0 | 8.0 | 0.00 | 0.07 | 0.00 | 40 | 983.9 |
| 20260504202713 | 70 | 231 | 4.0 | 9.0 | 0.00 | 0.07 | 0.00 | 40 | 983.9 |
| 20260504202213 | 69 | 265 | 4.0 | 9.0 | 0.00 | 0.07 | 0.00 | 40 | 984.0 |
| 20260504201713 | 69 | 184 | 5.0 | 14.0 | 0.00 | 0.07 | 0.00 | 43 | 984.0 |
| 20260504201213 | 69 | 227 | 6.0 | 14.0 | 0.00 | 0.07 | 0.00 | 42 | 984.1 |
| 20260504201007 | 69 | 309 | 4.0 | 12.0 | 0.00 | 0.07 | 0.00 | 42 | 984.1 |
| 20260504200211 | 70 | 146 | 4.0 | 12.0 | 0.00 | 0.07 | 0.00 | 39 | 984.2 |
| 20260504195707 | 70 | 58 | 4.0 | 12.0 | 0.00 | 0.07 | 0.00 | 38 | 984.3 |
| 20260504195207 | 70 | 217 | 4.0 | 9.0 | 0.00 | 0.07 | 0.00 | 41 | 984.3 |
| 20260504194957 | 70 | 161 | 4.0 | 11.0 | 0.00 | 0.07 | 0.00 | 42 | 984.3 |
| 20260504194208 | 70 | 182 | 5.0 | 11.0 | 0.00 | 0.07 | 0.00 | 42 | 984.4 |
| 20260504193958 | 70 | 299 | 5.0 | 11.0 | 0.00 | 0.07 | 0.00 | 39 | 984.3 |
| 20260504193208 | 70 | 175 | 4.0 | 9.0 | 0.00 | 0.07 | 0.00 | 38 | 984.5 |
| 20260504192711 | 70 | 199 | 3.0 | 8.0 | 0.00 | 0.07 | 0.00 | 40 | 984.6 |
| 20260504192209 | 70 | 10 | 4.0 | 14.0 | 0.00 | 0.07 | 0.00 | 40 | 984.6 |
| 20260504191708 | 69 | 228 | 5.0 | 14.0 | 0.00 | 0.07 | 0.00 | 40 | 984.7 |
| 20260504191211 | 69 | 216 | 5.0 | 12.0 | 0.00 | 0.07 | 0.00 | 40 | 984.7 |
| 20260504190954 | 69 | 114 | 5.0 | 12.0 | 0.00 | 0.07 | 0.00 | 39 | 984.8 |
| 20260504190205 | 70 | 205 | 4.0 | 11.0 | 0.00 | 0.07 | 0.00 | 37 | 984.8 |
| 20260504185705 | 69 | 197 | 4.0 | 13.0 | 0.00 | 0.07 | 0.00 | 41 | 984.9 |
| 20260504185204 | 69 | 197 | 4.0 | 13.0 | 0.00 | 0.07 | 0.00 | 39 | 984.9 |
| 20260504184703 | 69 | 207 | 5.0 | 11.0 | 0.00 | 0.07 | 0.00 | 41 | 985.0 |
| 20260504184204 | 68 | 165 | 5.0 | 11.0 | 0.00 | 0.07 | 0.00 | 44 | 985.1 |
| 20260504183704 | 68 | 200 | 5.0 | 11.0 | 0.00 | 0.07 | 0.00 | 41 | 985.1 |
| 20260504183203 | 68 | 292 | 4.0 | 9.0 | 0.00 | 0.07 | 0.00 | 40 | 985.0 |
| 20260504182701 | 68 | 205 | 4.0 | 11.0 | 0.00 | 0.07 | 0.00 | 40 | 985.2 |
| 20260504182201 | 68 | 210 | 4.0 | 11.0 | 0.00 | 0.07 | 0.00 | 42 | 985.4 |
| 20260504181701 | 68 | 215 | 4.0 | 11.0 | 0.00 | 0.07 | 0.00 | 39 | 985.4 |
| 20260504181200 | 68 | 179 | 4.0 | 11.0 | 0.00 | 0.07 | 0.00 | 40 | 985.5 |
| 20260504180700 | 68 | 300 | 5.0 | 10.0 | 0.00 | 0.07 | 0.00 | 40 | 985.5 |
| 20260504180200 | 68 | 260 | 5.0 | 10.0 | 0.00 | 0.07 | 0.00 | 44 | 985.7 |
| 20260504175701 | 68 | 160 | 4.0 | 10.0 | 0.00 | 0.07 | 0.00 | 42 | 985.6 |
| 20260504175201 | 67 | 293 | 4.0 | 11.0 | 0.00 | 0.07 | 0.00 | 42 | 985.8 |
| 20260504174701 | 67 | 340 | 4.0 | 11.0 | 0.00 | 0.07 | 0.00 | 40 | 985.8 |
| 20260504174201 | 68 | 252 | 4.0 | 11.0 | 0.00 | 0.07 | 0.00 | 43 | 985.9 |
| 20260504173701 | 68 | 274 | 4.0 | 9.0 | 0.00 | 0.07 | 0.00 | 40 | 985.9 |
| 20260504173202 | 67 | 221 | 4.0 | 8.0 | 0.00 | 0.07 | 0.00 | 42 | 986.0 |
| 20260504172701 | 67 | 337 | 4.0 | 11.0 | 0.00 | 0.07 | 0.00 | 42 | 986.1 |
| 20260504172201 | 66 | 285 | 5.0 | 11.0 | 0.00 | 0.07 | 0.00 | 43 | 986.1 |
| 20260504171701 | 66 | 239 | 4.0 | 9.0 | 0.00 | 0.07 | 0.00 | 41 | 986.2 |
| 20260504171202 | 67 | 193 | 4.0 | 10.0 | 0.00 | 0.07 | 0.00 | 40 | 986.2 |
| 20260504170701 | 66 | 288 | 4.0 | 10.0 | 0.00 | 0.07 | 0.00 | 43 | 986.4 |
| 20260504170202 | 67 | 312 | 4.0 | 10.0 | 0.00 | 0.07 | 0.00 | 42 | 986.5 |
| 20260504160202 | 64 | 204 | 4.0 | 11.0 | 0.00 | 0.07 | 0.00 | 44 | 987.0 |
| 20260504150702 | 63 | 265 | 3.0 | 9.0 | 0.00 | 0.07 | 0.00 | 43 | 987.7 |
| 20260504150202 | 62 | 211 | 4.0 | 8.0 | 0.00 | 0.07 | 0.00 | 44 | 987.7 |
| 20260504141201 | 61 | 351 | 2.0 | 8.0 | 0.00 | 0.07 | 0.00 | 48 | 987.8 |
| 20260504140701 | 60 | 272 | 2.0 | 6.0 | 0.00 | 0.07 | 0.00 | 49 | 987.8 |
| 20260504140201 | 60 | 232 | 2.0 | 8.0 | 0.00 | 0.07 | 0.00 | 48 | 987.8 |
| 20260504130741 | 55 | 174 | 2.0 | 6.0 | 0.00 | 0.07 | 0.00 | 59 | 988.1 |
| 20260504130729 | 56 | 356 | 2.0 | 6.0 | 0.00 | 0.07 | 0.00 | 56 | 988.1 |
| 20260504120201 | 52 | 212 | 2.0 | 5.0 | 0.00 | 0.07 | 0.00 | 63 | 988.1 |
| 20260504110702 | 46 | 349 | 1.0 | 3.0 | 0.00 | 0.07 | 0.00 | 61 | 988.3 |
| 20260504110202 | 45 | 301 | 1.0 | 2.0 | 0.00 | 0.07 | 0.00 | 62 | 988.3 |
| 20260504100202 | 44 | 0 | 1.0 | 2.0 | 0.00 | 0.07 | 0.00 | 63 | 988.3 |
| 20260504081649 | 45 | 2 | 1.0 | 2.0 | 0.00 | 0.07 | 0.00 | 60 | 988.4 |
| 20260504081153 | 45 | 32 | 1.0 | 2.0 | 0.00 | 0.07 | 0.00 | 59 | 988.4 |
| 20260504080649 | 45 | 37 | 2.0 | 3.0 | 0.00 | 0.07 | 0.00 | 59 | 988.4 |
| 20260504080148 | 44 | 12 | 1.0 | 3.0 | 0.00 | 0.07 | 0.00 | 60 | 988.3 |
| 20260504070132 | 44 | 39 | 0.0 | 1.0 | 0.00 | 0.07 | 0.00 | 63 | 988.4 |
| 20260504060130 | 44 | 341 | 1.0 | 2.0 | 0.00 | 0.07 | 0.00 | 64 | 988.5 |
| 20260504045602 | 45 | 63 | 1.0 | 2.0 | 0.00 | 0.07 | 0.00 | 63 | 988.6 |
| 20260504045102 | 45 | 0 | 1.0 | 2.0 | 0.00 | 0.07 | 0.00 | 63 | 988.6 |
| 20260504044830 | 45 | 357 | 1.0 | 2.0 | 0.00 | 0.07 | 0.00 | 62 | 988.5 |
| 20260504044053 | 45 | 36 | 0.0 | 2.0 | 0.00 | 0.07 | 0.00 | 62 | 988.6 |
| 20260504043553 | 45 | 95 | 1.0 | 2.0 | 0.00 | 0.07 | 0.00 | 64 | 988.6 |
| 20260504043053 | 45 | 333 | 1.0 | 2.0 | 0.00 | 0.07 | 0.00 | 61 | 988.5 |
| 20260504042831 | 45 | 36 | 1.0 | 2.0 | 0.00 | 0.07 | 0.00 | 60 | 988.4 |
| 20260504042330 | 44 | 24 | 1.0 | 2.0 | 0.00 | 0.07 | 0.00 | 62 | 988.4 |
| 20260504041552 | 44 | 17 | 0.0 | 2.0 | 0.00 | 0.07 | 0.00 | 62 | 988.3 |
| 20260504041052 | 44 | 0 | 1.0 | 3.0 | 0.00 | 0.07 | 0.00 | 63 | 988.3 |
| 20260504040924 | 44 | 59 | 0.0 | 2.0 | 0.00 | 0.07 | 0.00 | 62 | 988.2 |
| 20260504040620 | 45 | 334 | 1.0 | 3.0 | 0.00 | 0.07 | 0.00 | 62 | 988.2 |
| 20260504035552 | 45 | 348 | 0.0 | 1.0 | 0.00 | 0.07 | 0.07 | 63 | 988.3 |
| 20260504035052 | 45 | 0 | 0.0 | 2.0 | 0.00 | 0.07 | 0.07 | 64 | 988.2 |
| 20260504034555 | 45 | 0 | 1.0 | 2.0 | 0.00 | 0.07 | 0.07 | 61 | 988.1 |
| 20260504034052 | 45 | 46 | 1.0 | 3.0 | 0.00 | 0.07 | 0.07 | 62 | 988.2 |
| 20260504033552 | 45 | 5 | 1.0 | 3.0 | 0.00 | 0.07 | 0.07 | 63 | 988.2 |
| 20260504033131 | 45 | 0 | 1.0 | 2.0 | 0.00 | 0.07 | 0.07 | 63 | 988.0 |
| 20260504033118 | 45 | 0 | 0.0 | 2.0 | 0.00 | 0.07 | 0.07 | 64 | 988.2 |
| 20260504032337 | 46 | 110 | 1.0 | 3.0 | 0.00 | 0.07 | 0.07 | 61 | 987.9 |
| 20260504031552 | 46 | 349 | 1.0 | 3.0 | 0.00 | 0.07 | 0.07 | 60 | 987.9 |
| 20260504031332 | 46 | 356 | 1.0 | 3.0 | 0.00 | 0.07 | 0.07 | 60 | 987.9 |
| 20260504030546 | 46 | 61 | 1.0 | 2.0 | 0.00 | 0.07 | 0.07 | 60 | 987.9 |
| 20260504030042 | 46 | 7 | 1.0 | 2.0 | 0.00 | 0.07 | 0.07 | 60 | 987.9 |
| 20260504025542 | 46 | 48 | 1.0 | 2.0 | 0.00 | 0.07 | 0.07 | 60 | 987.9 |
| 20260504025040 | 46 | 56 | 1.0 | 2.0 | 0.00 | 0.07 | 0.07 | 60 | 987.9 |
| 20260504024542 | 46 | 25 | 0.0 | 2.0 | 0.00 | 0.07 | 0.07 | 60 | 987.9 |
| 20260504024326 | 46 | 53 | 1.0 | 2.0 | 0.00 | 0.07 | 0.07 | 59 | 987.9 |
| 20260504023541 | 46 | 68 | 1.0 | 2.0 | 0.00 | 0.07 | 0.07 | 59 | 987.9 |
| 20260504023041 | 46 | 12 | 1.0 | 2.0 | 0.00 | 0.07 | 0.07 | 59 | 988.0 |
| 20260504022826 | 46 | 24 | 1.0 | 2.0 | 0.00 | 0.07 | 0.07 | 59 | 988.0 |
| 20260504022327 | 47 | 15 | 1.0 | 2.0 | 0.00 | 0.07 | 0.07 | 59 | 988.0 |